sat.trackr.live / text

‹ back to catalog

STARLINK-35084

NORAD 65452 · 2025-194U

PAYLOAD ACTIVE UNKNOWN

§ Identity

Operator
Country
US
Launch date
2025-09-03
Launch site
AFWTR
Launch vehicle
Mass (kg)
RCS (m²)

Purposes: comms

External: N2YO · Heavens-Above · Gunter

§ Orbital elements

Epoch: 2026-05-25T02:26:29.446080Z

Period
95.64 min
Inclination
97.4538°
Eccentricity
0.0003312
Mean motion
15.05654395 rev/d
Perigee alt
547.2 km
Apogee alt
551.8 km
Semi-major
6,927.6 km
B*
1.6569e-4
RAAN
359.3072°
Arg perigee
84.1603°
Mean anomaly
276.0002°
Rev number
4,114

§ Raw data

STARLINK-350841 65452U 25194U   26145.10172970  .00002333  00000+0  16569-3 0  99982 65452  97.4538 359.3072 0003312  84.1603 276.0002 15.05654395 41140

JSON: /api/v1/satellites/65452 · /tle

For live sub-satellite position, see the globe view (requires WebGL).

§ Visibility from observer

Set your observer location to see the next 7 days of passes ≥ 10°. The values pass through the URL so the page stays shareable.

No JS? Fill the form by hand. The geolocation button needs JavaScript.